Weather History for CYYT - December, 2012

Change the Weather History Date:

Saturday, December 22, 2012

  Actual Average Record
Temperature  
Mean Temperature 26 °F -  
Max Temperature 32 °F 32 °F 55 °F (1998)
Min Temperature 21 °F 19 °F 8 °F (2005)
Degree Days  
Heating Degree Days 38    
Moisture  
Dew Point 25 °F    
Average Humidity 87    
Maximum Humidity 100    
Minimum Humidity 75    
Precipitation  
Precipitation 0.00 in 0.19 in - ()
Sea Level Pressure  
Sea Level Pressure 30.11 in    
Wind  
Wind Speed 9 mph ()    
Max Wind Speed 31 mph    
Max Gust Speed 38 mph    
Visibility 15.0 miles    
Events      
Averages and records for this station are not official NWS values.
T = Trace of Precipitation, MM = Missing Value Source: Averaged Metar Reports

Daily Weather History Graph

Daily Weather History Graph

Search for Another Location

Airport or City:

Trip Planner

Search our weather history database for the weather conditions in past years. The results will help you decide how hot, cold, wet, or windy it might be!

Date:

Astronomy

Dec. 22, 2012 Rise Set
Actual Time 7:47 AM NST 4:12 PM NST
Civil Twilight 7:11 AM NST 4:48 PM NST
Nautical Twilight 6:31 AM NST 5:28 PM NST
Astronomical Twilight 5:54 AM NST 6:05 PM NST
Moon 12:39 PM NST (12/22) 2:12 AM NST (12/22)
Length of Visible Light 9h 37m
Length of Day
8h 25m
Waxing Gibbous, 73% of the Moon is Illuminated
Dec 22
Waxing Gibbous
Dec 28
Full
Jan 5
Last Quarter
Jan 11
New
Jan 18
First Quarter

Hourly Weather History & Observations

Time (NST) Temp. Windchill Dew Point Humidity Pressure Visibility Wind Dir Wind Speed Gust Speed Precip Events Conditions
12:30 AM 21.2 °F 10.9 °F 19.4 °F 93% 30.09 in 15.0 mi NNW 9.2 mph - N/A   Mostly Cloudy
1:30 AM 24.8 °F 17.9 °F 21.2 °F 86% 30.10 in 15.0 mi NNW 5.8 mph - N/A   Mostly Cloudy
2:30 AM 26 °F - 23 °F 84% 30.11 in 15 mi NNW 5.8 mph - -   Overcast
2:30 AM 24.8 °F 16.9 °F 23.0 °F 93% 30.11 in 15.0 mi NNW 6.9 mph - N/A   Overcast
2:52 AM 24.8 °F 16.9 °F 23.0 °F 93% 30.11 in 15.0 mi NW 6.9 mph - N/A   Overcast
3:30 AM 26.6 °F 19.1 °F 23.0 °F 86% 30.11 in 15.0 mi NNW 6.9 mph - N/A   Overcast
4:30 AM 26.6 °F 18.2 °F 23.0 °F 86% 30.13 in 15.0 mi NW 8.1 mph - N/A   Overcast
5:30 AM 26.6 °F 17.5 °F 23.0 °F 86% 30.14 in 15.0 mi NW 9.2 mph - N/A   Overcast
6:30 AM 26.6 °F 20.0 °F 23.0 °F 86% 30.14 in 15.0 mi North 5.8 mph - N/A   Overcast
7:30 AM 24.8 °F - 23.0 °F 93% 30.15 in 15.0 mi NW 2.3 mph - N/A   Overcast
8:30 AM 25 °F - 22 °F 82% 30.17 in 15 mi West 3.5 mph - -   Overcast
8:30 AM 24.8 °F 20.5 °F 21.2 °F 86% 30.17 in 15.0 mi West 3.5 mph - N/A   Overcast
9:30 AM 26.6 °F 22.6 °F 23.0 °F 86% 30.16 in 15.0 mi East 3.5 mph - N/A   Mostly Cloudy
10:30 AM 28.4 °F 22.2 °F 23.0 °F 80% 30.17 in 15.0 mi East 5.8 mph - N/A   Mostly Cloudy
11:30 AM 30.2 °F 24.3 °F 23.0 °F 75% 30.16 in 15.0 mi SE 5.8 mph - N/A   Mostly Cloudy
12:30 PM 30.2 °F 26.7 °F 24.8 °F 80% 30.16 in 15.0 mi SE 3.5 mph - N/A   Mostly Cloudy
1:30 PM 30.2 °F 21.9 °F 24.8 °F 80% 30.13 in 15.0 mi SSE 9.2 mph - N/A   Overcast
2:17 PM 30.2 °F 20.8 °F 24.8 °F 80% 30.11 in 15.0 mi ESE 11.5 mph - N/A   Mostly Cloudy
2:30 PM 29 °F - 25 °F 79% 30.11 in 15 mi SE 11.5 mph - -   Mostly Cloudy
2:30 PM 28.4 °F 17.0 °F 24.8 °F 86% 30.11 in 15.0 mi ESE 15.0 mph - N/A   Mostly Cloudy
3:30 PM 28.4 °F 17.0 °F 24.8 °F 86% 30.11 in 15.0 mi SE 15.0 mph 20.7 mph N/A   Mostly Cloudy
4:30 PM 28.4 °F 17.0 °F 24.8 °F 86% 30.09 in 15.0 mi SE 15.0 mph 24.2 mph N/A   Overcast
5:30 PM 28.4 °F 15.8 °F 26.6 °F 93% 30.08 in 15.0 mi SE 18.4 mph - N/A   Overcast
6:30 PM 28.4 °F 15.4 °F 26.6 °F 93% 30.08 in 15.0 mi SE 19.6 mph - N/A   Overcast
7:30 PM 30.2 °F 16.5 °F 26.6 °F 86% 30.06 in 15.0 mi SE 24.2 mph 31.1 mph N/A   Overcast
8:30 PM 30 °F - 28 °F 90% 30.07 in 15 mi SSE 27.6 mph - -   Overcast
8:30 PM 30.2 °F 15.4 °F 28.4 °F 93% 30.07 in 15.0 mi SSE 28.8 mph 35.7 mph N/A   Overcast
9:30 PM 30.2 °F 16.2 °F 30.2 °F 100% 30.03 in 15.0 mi SSE 25.3 mph 32.2 mph N/A   Overcast
10:30 PM 32.0 °F 17.9 °F 30.2 °F 93% 29.99 in 15.0 mi SE 28.8 mph 38.0 mph N/A   Overcast
11:30 PM 32.0 °F 17.4 °F 32.0 °F 100% 29.97 in 15.0 mi SSE 31.1 mph 38.0 mph N/A   Overcast